• In Deutschland
  • Länderverzeichnis
  • Für 7 Tage
  • Wassertemperatur
  • Satellitenkarten
  • Wetterkarte
  • Widgets
  • user-avatar
    Anmelden

    Stündliche Wetter Dundong

    Heute, 23 Juni, Samstag

    Zeit Temperatur Niederschläge Wind Luftdruck Luftfeuchtigkeit
    00:00 +23°C° 0,2 mm 1 m/S 690 mmHg 97%
    01:00 +23°C° 0 mm 1 m/S 690 mmHg 97%
    02:00 +23°C° 0,2 mm 1 m/S 690 mmHg 98%
    03:00 +23°C° 0,2 mm 1 m/S 690 mmHg 98%
    04:00 +23°C° 0,2 mm 1 m/S 690 mmHg 98%
    05:00 +23°C° 0,1 mm 1 m/S 691 mmHg 97%
    06:00 +24°C° 0,1 mm 1 m/S 691 mmHg 96%
    07:00 +24°C° 0 mm 1 m/S 691 mmHg 96%
    08:00 +25°C° 0,3 mm 1 m/S 691 mmHg 93%
    09:00 +26°C° 0,3 mm 1 m/S 691 mmHg 90%
    10:00 +27°C° 0,3 mm 2 m/S 691 mmHg 87%
    11:00 +27°C° 0,9 mm 2 m/S 691 mmHg 86%
    12:00 +28°C° 0,9 mm 2 m/S 691 mmHg 85%
    13:00 +28°C° 0 mm 3 m/S 691 mmHg 83%
    14:00 +29°C° 0,7 mm 3 m/S 690 mmHg 82%
    15:00 +29°C° 0,7 mm 3 m/S 690 mmHg 80%
    16:00 +29°C° 0,7 mm 3 m/S 690 mmHg 79%
    17:00 +27°C° 0,2 mm 2 m/S 690 mmHg 84%
    18:00 +26°C° 0,2 mm 2 m/S 690 mmHg 89%
    19:00 +25°C° 0,2 mm 1 m/S 690 mmHg 94%
    20:00 +24°C° 0 mm 1 m/S 690 mmHg 95%
    21:00 +24°C° 0 mm 1 m/S 691 mmHg 96%
    22:00 +24°C° 0 mm 1 m/S 691 mmHg 97%
    23:00 +23°C° 0,1 mm 1 m/S 691 mmHg 97%

    Morgen, 24 Juni, Sonntag

    Zeit Temperatur Niederschläge Wind Luftdruck Luftfeuchtigkeit
    00:00 +23°C° 0,1 mm 1 m/S 691 mmHg 97%
    01:00 +23°C° 0,1 mm 1 m/S 691 mmHg 97%
    02:00 +23°C° 0,1 mm 1 m/S 691 mmHg 97%
    03:00 +23°C° 0,1 mm 1 m/S 690 mmHg 97%
    04:00 +23°C° 0,1 mm 1 m/S 690 mmHg 97%
    05:00 +24°C° 0,1 mm 1 m/S 691 mmHg 95%
    06:00 +24°C° 0,1 mm 1 m/S 691 mmHg 94%
    07:00 +25°C° 0,1 mm 1 m/S 692 mmHg 92%
    08:00 +26°C° 0,2 mm 2 m/S 692 mmHg 87%
    09:00 +27°C° 0,2 mm 2 m/S 692 mmHg 81%
    10:00 +28°C° 0,2 mm 3 m/S 692 mmHg 76%
    11:00 +29°C° 0,7 mm 3 m/S 692 mmHg 76%
    12:00 +29°C° 0,7 mm 3 m/S 692 mmHg 75%
    13:00 +30°C° 0,7 mm 3 m/S 691 mmHg 75%
    14:00 +29°C° 1 mm 3 m/S 691 mmHg 77%
    15:00 +29°C° 1 mm 3 m/S 691 mmHg 79%
    16:00 +29°C° 1 mm 3 m/S 691 mmHg 81%
    17:00 +27°C° 0,9 mm 2 m/S 691 mmHg 86%
    18:00 +26°C° 0,9 mm 2 m/S 691 mmHg 90%
    19:00 +25°C° 0,9 mm 2 m/S 690 mmHg 94%
    20:00 +25°C° 0,1 mm 2 m/S 691 mmHg 95%
    21:00 +24°C° 0,1 mm 2 m/S 692 mmHg 95%
    22:00 +24°C° 0,1 mm 2 m/S 692 mmHg 96%
    23:00 +24°C° 0,1 mm 1 m/S 692 mmHg 96%

    übermorgen, 25 Juni, Montag

    Zeit Temperatur Niederschläge Wind Luftdruck Luftfeuchtigkeit
    00:00 +24°C° 0,1 mm 1 m/S 692 mmHg 97%
    01:00 +24°C° 0,1 mm 1 m/S 691 mmHg 97%
    02:00 +23°C° 0,1 mm 1 m/S 691 mmHg 97%
    03:00 +23°C° 0,1 mm 1 m/S 691 mmHg 97%
    04:00 +23°C° 0,1 mm 1 m/S 691 mmHg 97%
    05:00 +24°C° 0,1 mm 1 m/S 691 mmHg 95%
    06:00 +25°C° 0,1 mm 2 m/S 692 mmHg 92%
    07:00 +26°C° 0,1 mm 2 m/S 692 mmHg 90%
    08:00 +27°C° 0,2 mm 2 m/S 692 mmHg 84%
    09:00 +28°C° 0,2 mm 3 m/S 692 mmHg 77%
    10:00 +29°C° 0,2 mm 3 m/S 693 mmHg 71%
    11:00 +30°C° 0,4 mm 3 m/S 692 mmHg 69%
    12:00 +30°C° 0,4 mm 4 m/S 692 mmHg 68%
    13:00 +32°C° 0,4 mm 4 m/S 692 mmHg 67%
    14:00 +32°C° 0,1 mm 4 m/S 691 mmHg 67%
    15:00 +30°C° 0,1 mm 4 m/S 691 mmHg 67%
    16:00 +30°C° 0,1 mm 4 m/S 690 mmHg 67%
    17:00 +29°C° 0 mm 3 m/S 690 mmHg 74%
    18:00 +27°C° 0 mm 2 m/S 690 mmHg 82%
    19:00 +26°C° 0 mm 2 m/S 690 mmHg 89%
    20:00 +25°C° 0 mm 2 m/S 691 mmHg 91%
    21:00 +24°C° 0 mm 2 m/S 691 mmHg 94%
    22:00 +24°C° 0 mm 1 m/S 692 mmHg 96%
    23:00 +24°C° 0 mm 1 m/S 692 mmHg 96%

    26 Juni, Dienstag

    Zeit Temperatur Niederschläge Wind Luftdruck Luftfeuchtigkeit
    00:00 +23°C° 0 mm 1 m/S 692 mmHg 97%
    01:00 +23°C° 0 mm 1 m/S 691 mmHg 97%
    02:00 +23°C° 0,1 mm 1 m/S 691 mmHg 97%
    03:00 +23°C° 0,1 mm 1 m/S 691 mmHg 98%
    04:00 +23°C° 0,1 mm 1 m/S 691 mmHg 98%
    05:00 +24°C° 0,1 mm 2 m/S 692 mmHg 95%
    06:00 +24°C° 0,1 mm 2 m/S 692 mmHg 92%
    07:00 +25°C° 0,1 mm 2 m/S 693 mmHg 89%
    08:00 +26°C° 0,2 mm 2 m/S 693 mmHg 83%
    09:00 +28°C° 0,2 mm 3 m/S 693 mmHg 78%
    10:00 +29°C° 0,2 mm 3 m/S 694 mmHg 73%
    11:00 +29°C° 0,8 mm 3 m/S 694 mmHg 73%
    12:00 +29°C° 0,8 mm 3 m/S 693 mmHg 73%
    13:00 +30°C° 0,8 mm 3 m/S 693 mmHg 74%
    14:00 +30°C° 0,2 mm 3 m/S 693 mmHg 72%
    15:00 +30°C° 0,2 mm 3 m/S 692 mmHg 71%
    16:00 +30°C° 0,2 mm 3 m/S 692 mmHg 70%
    17:00 +28°C° 0 mm 3 m/S 692 mmHg 77%
    18:00 +27°C° 0 mm 2 m/S 692 mmHg 83%
    19:00 +25°C° 0 mm 2 m/S 692 mmHg 90%
    20:00 +25°C° 0 mm 1 m/S 693 mmHg 92%
    21:00 +24°C° 0 mm 1 m/S 693 mmHg 94%
    22:00 +24°C° 0 mm 1 m/S 694 mmHg 96%
    23:00 +23°C° 0 mm 1 m/S 693 mmHg 97%

    27 Juni, Mittwoch

    Zeit Temperatur Niederschläge Wind Luftdruck Luftfeuchtigkeit
    00:00 +23°C° 0 mm 1 m/S 693 mmHg 97%
    01:00 +23°C° 0 mm 1 m/S 693 mmHg 98%
    02:00 +23°C° 0 mm 1 m/S 692 mmHg 98%
    03:00 +23°C° 0 mm 1 m/S 692 mmHg 98%
    04:00 +22°C° 0 mm 1 m/S 692 mmHg 98%
    05:00 +23°C° 0 mm 1 m/S 693 mmHg 95%
    06:00 +24°C° 0 mm 1 m/S 693 mmHg 92%
    07:00 +25°C° 0 mm 2 m/S 694 mmHg 88%
    08:00 +26°C° 0,1 mm 2 m/S 694 mmHg 82%
    09:00 +28°C° 0,1 mm 2 m/S 694 mmHg 75%
    10:00 +29°C° 0,1 mm 3 m/S 694 mmHg 69%
    11:00 +30°C° 0,1 mm 3 m/S 694 mmHg 66%
    12:00 +30°C° 0,1 mm 3 m/S 693 mmHg 63%
    13:00 +31°C° 0,1 mm 3 m/S 693 mmHg 60%
    14:00 +31°C° 0 mm 3 m/S 692 mmHg 61%
    15:00 +31°C° 0 mm 3 m/S 692 mmHg 62%
    16:00 +32°C° 0 mm 4 m/S 692 mmHg 64%
    17:00 +29°C° 0 mm 3 m/S 692 mmHg 72%
    18:00 +27°C° 0 mm 2 m/S 692 mmHg 80%
    19:00 +25°C° 0 mm 2 m/S 692 mmHg 88%
    20:00 +25°C° 0 mm 2 m/S 692 mmHg 90%
    21:00 +24°C° 0 mm 2 m/S 692 mmHg 93%
    22:00 +24°C° 0 mm 1 m/S 693 mmHg 96%
    23:00 +23°C° 0 mm 1 m/S 692 mmHg 96%

    28 Juni, Donnerstag

    Zeit Temperatur Niederschläge Wind Luftdruck Luftfeuchtigkeit
    00:00 +23°C° 0 mm 1 m/S 692 mmHg 96%
    01:00 +23°C° 0 mm 1 m/S 691 mmHg 97%
    02:00 +23°C° 0 mm 1 m/S 691 mmHg 97%
    03:00 +23°C° 0 mm 1 m/S 691 mmHg 98%
    04:00 +23°C° 0 mm 1 m/S 691 mmHg 98%
    05:00 +23°C° 0,1 mm 1 m/S 692 mmHg 95%
    06:00 +24°C° 0,1 mm 2 m/S 692 mmHg 91%
    07:00 +25°C° 0,1 mm 2 m/S 693 mmHg 88%
    08:00 +26°C° 0,1 mm 2 m/S 693 mmHg 82%
    09:00 +28°C° 0,1 mm 3 m/S 693 mmHg 75%
    10:00 +29°C° 0,1 mm 4 m/S 693 mmHg 69%
    11:00 +30°C° 0,1 mm 4 m/S 692 mmHg 66%
    12:00 +30°C° 0,1 mm 4 m/S 692 mmHg 63%
    13:00 +32°C° 0,1 mm 4 m/S 691 mmHg 60%
    14:00 +32°C° 0,1 mm 4 m/S 691 mmHg 63%
    15:00 +30°C° 0,1 mm 4 m/S 690 mmHg 65%
    16:00 +30°C° 0,1 mm 4 m/S 690 mmHg 68%
    17:00 +28°C° 0,1 mm 3 m/S 690 mmHg 75%
    18:00 +27°C° 0,1 mm 3 m/S 690 mmHg 82%
    19:00 +25°C° 0,1 mm 2 m/S 691 mmHg 89%
    20:00 +25°C° 0 mm 2 m/S 691 mmHg 91%
    21:00 +24°C° 0 mm 2 m/S 691 mmHg 93%
    22:00 +24°C° 0 mm 1 m/S 691 mmHg 95%
    23:00 +23°C° 0 mm 1 m/S 691 mmHg 96%
    Mehr zeigen